Location: Newark
(40.9833°N, 0.0333°W)
Time: 03:37:12
(UTC+00:00)

Transit 2A Rocket - Pass Details

Date: 01 November 2020
Orbit: 588 x 914 km, 66.7° (Epoch: 26 November)

Event Time Altitude Azimuth Distance (km) Brightness Sun altitude
Rises 18:21:30 0° 321° (NW) 3,211 8.7 -16.7°
Reaches altitude 10° 18:24:12 10° 311° (NW) 2,223 8.0 -17.2°
Maximum altitude 18:28:34 30° 251° (WSW) 1,214 6.8 -18.0°
Drops below altitude 10° 18:32:35 10° 190° (S) 2,040 7.4 -18.8°
Sets 18:34:58 0° 179° (S) 2,902 8.0 -19.2°
